Time,TemperatureF,DewpointF,PressureIn,WindDirection,WindDirectionDegrees,WindSpeedMPH,WindSpeedGustMPH,Humidity,HourlyPrecipIn,Conditions,Clouds,dailyrainin,SoftwareType,DateUTC
2013-04-08 00:00:00,61.3,58.1,30.07,SSE,164,0.0,1.0,89,0.00,,,0.00,meteohub,2013-04-08 05:00:00,
2013-04-08 00:05:00,61.0,57.7,30.07,SSE,164,0.0,1.0,89,0.00,,,0.00,meteohub,2013-04-08 05:05:00,
2013-04-08 00:10:00,60.6,57.7,30.07,SSE,164,0.0,1.0,90,0.00,,,0.00,meteohub,2013-04-08 05:10:00,
2013-04-08 00:15:00,60.4,57.6,30.07,SSE,164,0.0,0.0,90,0.00,,,0.00,meteohub,2013-04-08 05:15:00,
2013-04-08 00:20:00,60.3,57.6,30.07,SSE,164,0.0,0.0,91,0.00,,,0.00,meteohub,2013-04-08 05:20:00,
2013-04-08 00:25:00,60.1,57.4,30.07,SSE,164,0.0,0.0,91,0.00,,,0.00,meteohub,2013-04-08 05:25:00,
2013-04-08 00:31:00,59.9,57.2,30.06,SSE,164,0.0,0.0,91,0.00,,,0.00,meteohub,2013-04-08 05:31:00,
2013-04-08 00:36:00,59.5,56.8,30.06,SSE,164,0.0,0.0,91,0.00,,,0.00,meteohub,2013-04-08 05:36:00,
2013-04-08 00:41:00,59.5,56.8,30.06,SSE,164,0.0,0.0,91,0.00,,,0.00,meteohub,2013-04-08 05:41:00,
2013-04-08 00:46:00,59.4,57.0,30.06,SSE,164,0.0,0.0,92,0.00,,,0.00,meteohub,2013-04-08 05:46:00,
2013-04-08 00:52:00,59.0,56.7,30.07,SSE,164,0.0,0.0,92,0.00,,,0.00,meteohub,2013-04-08 05:52:00,
2013-04-08 00:57:00,58.6,56.7,30.06,SSE,164,0.0,0.0,93,0.00,,,0.00,meteohub,2013-04-08 05:57:00,
2013-04-08 01:02:00,58.6,56.7,30.06,SSE,164,0.0,0.0,93,0.00,,,0.00,meteohub,2013-04-08 06:02:00,
2013-04-08 01:07:00,58.5,56.5,30.06,SSE,164,1.0,0.0,93,0.00,,,0.00,meteohub,2013-04-08 06:07:00,
2013-04-08 01:13:00,58.5,56.5,30.06,SSE,164,0.0,2.0,93,0.00,,,0.00,meteohub,2013-04-08 06:13:00,
2013-04-08 01:18:00,58.3,56.3,30.06,SSE,164,0.0,2.0,93,0.00,,,0.00,meteohub,2013-04-08 06:18:00,
2013-04-08 01:23:00,58.1,56.1,30.06,SSE,164,0.0,2.0,93,0.00,,,0.00,meteohub,2013-04-08 06:23:00,
2013-04-08 01:29:00,57.9,56.1,30.06,SSE,164,0.0,1.0,94,0.00,,,0.00,meteohub,2013-04-08 06:29:00,
2013-04-08 01:34:00,57.7,55.8,30.06,SSE,164,0.0,1.0,93,0.00,,,0.00,meteohub,2013-04-08 06:34:00,
2013-04-08 01:39:00,57.6,55.6,30.06,SSE,164,1.0,1.0,93,0.00,,,0.00,meteohub,2013-04-08 06:39:00,
2013-04-08 01:45:00,57.4,55.4,30.06,SSE,164,0.0,1.0,93,0.00,,,0.00,meteohub,2013-04-08 06:45:00,
2013-04-08 01:50:00,57.2,55.4,30.05,SSE,164,0.0,1.0,94,0.00,,,0.00,meteohub,2013-04-08 06:50:00,
2013-04-08 01:55:00,57.4,55.6,30.05,SSE,164,0.0,1.0,94,0.00,,,0.00,meteohub,2013-04-08 06:55:00,
2013-04-08 02:00:00,57.4,55.6,30.05,SSE,164,0.0,1.0,94,0.00,,,0.00,meteohub,2013-04-08 07:00:00,
2013-04-08 02:05:00,57.4,55.6,30.05,SSE,164,0.0,1.0,94,0.00,,,0.00,meteohub,2013-04-08 07:05:00,
2013-04-08 02:11:00,57.4,55.6,30.05,SSE,164,0.0,1.0,94,0.00,,,0.00,meteohub,2013-04-08 07:11:00,
2013-04-08 02:16:00,57.4,55.9,30.05,SSE,160,1.0,1.0,95,0.00,,,0.00,meteohub,2013-04-08 07:16:00,
2013-04-08 02:21:00,57.6,56.1,30.05,East,79,1.0,2.0,95,0.00,,,0.00,meteohub,2013-04-08 07:21:00,
2013-04-08 02:27:00,57.4,55.6,30.05,East,79,0.0,2.0,94,0.00,,,0.00,meteohub,2013-04-08 07:27:00,
2013-04-08 02:32:00,57.4,55.6,30.05,East,79,0.0,2.0,94,0.00,,,0.00,meteohub,2013-04-08 07:32:00,
2013-04-08 02:37:00,57.4,55.9,30.05,East,79,0.0,2.0,95,0.00,,,0.00,meteohub,2013-04-08 07:37:00,
2013-04-08 02:42:00,57.7,56.3,30.05,East,87,1.0,2.0,95,0.00,,,0.00,meteohub,2013-04-08 07:42:00,
2013-04-08 02:47:00,57.7,56.3,30.05,East,86,1.0,2.0,95,0.00,,,0.00,meteohub,2013-04-08 07:47:00,
2013-04-08 02:53:00,58.1,56.7,30.05,East,85,1.0,2.0,95,0.00,,,0.00,meteohub,2013-04-08 07:53:00,
2013-04-08 02:58:00,58.3,56.8,30.05,East,85,0.0,3.0,95,0.00,,,0.00,meteohub,2013-04-08 07:58:00,
2013-04-08 03:03:00,58.3,56.8,30.04,East,85,0.0,3.0,95,0.00,,,0.00,meteohub,2013-04-08 08:03:00,
2013-04-08 03:09:00,58.3,56.5,30.04,East,85,0.0,3.0,94,0.00,,,0.00,meteohub,2013-04-08 08:09:00,
2013-04-08 03:14:00,58.1,56.3,30.04,East,85,0.0,3.0,94,0.00,,,0.00,meteohub,2013-04-08 08:14:00,
2013-04-08 03:20:00,58.3,56.8,30.04,East,85,0.0,2.0,95,0.00,,,0.00,meteohub,2013-04-08 08:20:00,
2013-04-08 03:25:00,58.3,56.8,30.04,East,85,0.0,0.0,95,0.00,,,0.00,meteohub,2013-04-08 08:25:00,
2013-04-08 03:30:00,58.1,56.7,30.04,East,85,2.0,2.0,95,0.00,,,0.00,meteohub,2013-04-08 08:30:00,
2013-04-08 03:35:00,57.9,56.5,30.04,ESE,106,1.0,2.0,95,0.00,,,0.00,meteohub,2013-04-08 08:35:00,
2013-04-08 03:41:00,57.9,56.5,30.04,ESE,107,0.0,2.0,95,0.00,,,0.00,meteohub,2013-04-08 08:41:00,
2013-04-08 03:47:00,57.9,56.5,30.04,ESE,106,1.0,2.0,95,0.00,,,0.00,meteohub,2013-04-08 08:47:00,
2013-04-08 03:52:00,58.1,56.7,30.04,ESE,106,0.0,2.0,95,0.00,,,0.00,meteohub,2013-04-08 08:52:00,
2013-04-08 03:57:00,58.1,56.7,30.04,ESE,106,0.0,2.0,95,0.00,,,0.00,meteohub,2013-04-08 08:57:00,
2013-04-08 04:02:00,58.1,56.7,30.04,ESE,107,1.0,2.0,95,0.00,,,0.00,meteohub,2013-04-08 09:02:00,
2013-04-08 04:07:00,57.9,56.5,30.04,ESE,106,1.0,2.0,95,0.00,,,0.00,meteohub,2013-04-08 09:07:00,
2013-04-08 04:13:00,57.9,56.5,30.04,East,91,0.0,2.0,95,0.00,,,0.00,meteohub,2013-04-08 09:13:00,
2013-04-08 04:18:00,57.7,56.3,30.04,East,91,0.0,3.0,95,0.00,,,0.00,meteohub,2013-04-08 09:18:00,
2013-04-08 04:23:00,57.6,56.1,30.05,East,91,0.0,3.0,95,0.00,,,0.00,meteohub,2013-04-08 09:23:00,
2013-04-08 04:28:00,57.7,56.3,30.05,East,91,1.0,3.0,95,0.00,,,0.00,meteohub,2013-04-08 09:28:00,
2013-04-08 04:34:00,57.7,56.3,30.05,East,91,0.0,1.0,95,0.00,,,0.00,meteohub,2013-04-08 09:34:00,
2013-04-08 04:39:00,57.6,56.1,30.05,East,91,0.0,2.0,95,0.00,,,0.00,meteohub,2013-04-08 09:39:00,
2013-04-08 04:44:00,57.6,56.1,30.05,East,91,0.0,2.0,95,0.00,,,0.00,meteohub,2013-04-08 09:44:00,
2013-04-08 04:50:00,57.6,56.1,30.05,East,93,1.0,2.0,95,0.00,,,0.00,meteohub,2013-04-08 09:50:00,
2013-04-08 04:55:00,57.6,56.1,30.05,East,93,0.0,3.0,95,0.00,,,0.00,meteohub,2013-04-08 09:55:00,
2013-04-08 05:00:00,57.4,55.9,30.05,ESE,109,2.0,3.0,95,0.00,,,0.00,meteohub,2013-04-08 10:00:00,
2013-04-08 05:05:00,57.6,56.1,30.05,ESE,117,1.0,3.0,95,0.00,,,0.00,meteohub,2013-04-08 10:05:00,
2013-04-08 05:11:00,57.6,56.1,30.05,ESE,112,3.0,4.0,95,0.00,,,0.00,meteohub,2013-04-08 10:11:00,
2013-04-08 05:16:00,57.6,56.1,30.05,ESE,102,0.0,4.0,95,0.00,,,0.00,meteohub,2013-04-08 10:16:00,
2013-04-08 05:22:00,57.6,56.1,30.06,ESE,102,1.0,4.0,95,0.00,,,0.00,meteohub,2013-04-08 10:22:00,
2013-04-08 05:27:00,57.7,56.7,30.06,ESE,120,1.0,4.0,96,0.00,,,0.00,meteohub,2013-04-08 10:27:00,
2013-04-08 05:32:00,57.7,56.3,30.06,ESE,111,2.0,5.0,95,0.00,,,0.00,meteohub,2013-04-08 10:32:00,
2013-04-08 05:38:00,57.6,56.1,30.06,ESE,108,2.0,5.0,95,0.00,,,0.00,meteohub,2013-04-08 10:38:00,
2013-04-08 05:43:00,57.4,55.9,30.06,SE,125,2.0,5.0,95,0.00,,,0.00,meteohub,2013-04-08 10:43:00,
2013-04-08 05:48:00,57.4,55.9,30.06,ESE,106,2.0,3.0,95,0.00,,,0.00,meteohub,2013-04-08 10:48:00,
2013-04-08 05:54:00,57.4,56.3,30.06,ESE,104,1.0,4.0,96,0.00,,,0.00,meteohub,2013-04-08 10:54:00,
2013-04-08 05:59:00,57.4,56.3,30.06,SE,127,1.0,4.0,96,0.00,,,0.00,meteohub,2013-04-08 10:59:00,
2013-04-08 06:04:00,57.4,56.3,30.06,ESE,106,2.0,5.0,96,0.00,,,0.00,meteohub,2013-04-08 11:04:00,
2013-04-08 06:09:00,57.2,56.1,30.06,ESE,110,3.0,5.0,96,0.00,,,0.00,meteohub,2013-04-08 11:09:00,
2013-04-08 06:15:00,57.2,56.1,30.07,ESE,110,3.0,7.0,96,0.00,,,0.00,meteohub,2013-04-08 11:15:00,
2013-04-08 06:20:00,57.0,55.9,30.06,SE,130,6.0,8.0,96,0.00,,,0.00,meteohub,2013-04-08 11:20:00,
2013-04-08 06:25:00,57.0,55.9,30.07,SE,129,3.0,8.0,96,0.00,,,0.00,meteohub,2013-04-08 11:25:00,
2013-04-08 06:31:00,56.8,55.8,30.07,ESE,106,4.0,9.0,96,0.00,,,0.00,meteohub,2013-04-08 11:31:00,
2013-04-08 06:36:00,56.8,55.8,30.07,ESE,112,2.0,9.0,96,0.00,,,0.00,meteohub,2013-04-08 11:36:00,
2013-04-08 06:41:00,56.7,55.6,30.07,ESE,108,3.0,8.0,96,0.00,,,0.00,meteohub,2013-04-08 11:41:00,
2013-04-08 06:47:00,56.7,55.6,30.07,ESE,115,4.0,7.0,96,0.00,,,0.00,meteohub,2013-04-08 11:47:00,
2013-04-08 06:52:00,56.7,55.6,30.07,ESE,122,4.0,7.0,96,0.00,,,0.00,meteohub,2013-04-08 11:52:00,
2013-04-08 06:57:00,56.7,55.6,30.07,SE,125,1.0,7.0,96,0.00,,,0.00,meteohub,2013-04-08 11:57:00,
2013-04-08 07:02:00,56.8,55.8,30.08,ESE,107,2.0,5.0,96,0.00,,,0.00,meteohub,2013-04-08 12:02:00,
2013-04-08 07:07:00,57.0,55.9,30.08,ESE,104,2.0,5.0,96,0.00,,,0.00,meteohub,2013-04-08 12:07:00,
2013-04-08 07:12:00,57.4,56.3,30.09,East,91,5.0,6.0,96,0.00,,,0.00,meteohub,2013-04-08 12:12:00,
2013-04-08 07:17:00,57.6,56.5,30.09,ESE,112,1.0,6.0,96,0.00,,,0.00,meteohub,2013-04-08 12:17:00,
2013-04-08 07:23:00,57.9,56.8,30.09,East,88,2.0,6.0,96,0.00,,,0.00,meteohub,2013-04-08 12:23:00,
2013-04-08 07:28:00,58.3,56.8,30.09,ESE,102,2.0,6.0,95,0.00,,,0.00,meteohub,2013-04-08 12:28:00,
2013-04-08 07:33:00,58.6,56.8,30.09,East,95,2.0,5.0,94,0.00,,,0.00,meteohub,2013-04-08 12:33:00,
2013-04-08 07:38:00,59.2,57.4,30.09,ESE,111,2.0,5.0,94,0.00,,,0.00,meteohub,2013-04-08 12:38:00,
2013-04-08 07:44:00,59.7,57.7,30.10,ESE,110,1.0,5.0,93,0.00,,,0.00,meteohub,2013-04-08 12:44:00,
2013-04-08 07:49:00,60.3,57.9,30.10,East,91,2.0,5.0,92,0.00,,,0.00,meteohub,2013-04-08 12:49:00,
2013-04-08 07:54:00,60.4,58.1,30.10,SE,133,3.0,6.0,92,0.00,,,0.00,meteohub,2013-04-08 12:54:00,
2013-04-08 07:59:00,60.8,58.1,30.10,ESE,113,1.0,6.0,91,0.00,,,0.00,meteohub,2013-04-08 12:59:00,
2013-04-08 08:04:00,61.3,58.6,30.10,ESE,108,2.0,6.0,91,0.00,,,0.00,meteohub,2013-04-08 13:04:00,
2013-04-08 08:10:00,61.9,59.0,30.10,East,101,3.0,6.0,90,0.00,,,0.00,meteohub,2013-04-08 13:10:00,
2013-04-08 08:15:00,62.2,59.0,30.10,SE,128,3.0,7.0,89,0.00,,,0.00,meteohub,2013-04-08 13:15:00,
2013-04-08 08:20:00,62.6,59.0,30.10,East,99,3.0,9.0,88,0.00,,,0.00,meteohub,2013-04-08 13:20:00,
2013-04-08 08:25:00,63.1,59.2,30.10,SE,130,8.0,9.0,87,0.00,,,0.00,meteohub,2013-04-08 13:25:00,
2013-04-08 08:31:00,63.7,58.8,30.10,ESE,121,5.0,12.0,84,0.00,,,0.00,meteohub,2013-04-08 13:31:00,
2013-04-08 08:36:00,64.0,58.8,30.10,SE,131,4.0,12.0,83,0.00,,,0.00,meteohub,2013-04-08 13:36:00,
2013-04-08 08:41:00,64.6,59.0,30.10,SE,130,3.0,11.0,82,0.00,,,0.00,meteohub,2013-04-08 13:41:00,
2013-04-08 08:47:00,65.5,59.5,30.10,East,99,1.0,11.0,81,0.00,,,0.00,meteohub,2013-04-08 13:47:00,
2013-04-08 08:52:00,66.0,59.4,30.10,ESE,104,2.0,8.0,79,0.00,,,0.00,meteohub,2013-04-08 13:52:00,
2013-04-08 08:58:00,66.6,59.2,30.11,ESE,121,1.0,9.0,77,0.00,,,0.00,meteohub,2013-04-08 13:58:00,
2013-04-08 09:03:00,66.9,58.8,30.11,SE,133,4.0,11.0,75,0.00,,,0.00,meteohub,2013-04-08 14:03:00,
2013-04-08 09:08:00,67.5,59.2,30.11,ESE,114,5.0,12.0,75,0.00,,,0.00,meteohub,2013-04-08 14:08:00,
2013-04-08 09:13:00,67.6,59.0,30.11,ESE,116,4.0,12.0,74,0.00,,,0.00,meteohub,2013-04-08 14:13:00,
2013-04-08 09:18:00,67.8,58.8,30.11,SSW,192,2.0,12.0,73,0.00,,,0.00,meteohub,2013-04-08 14:18:00,
2013-04-08 09:23:00,68.4,59.0,30.11,SSE,156,3.0,9.0,72,0.00,,,0.00,meteohub,2013-04-08 14:23:00,
2013-04-08 09:29:00,68.7,59.0,30.11,ESE,116,2.0,9.0,71,0.00,,,0.00,meteohub,2013-04-08 14:29:00,
2013-04-08 09:34:00,69.1,58.5,30.11,ESE,111,3.0,9.0,69,0.00,,,0.00,meteohub,2013-04-08 14:34:00,
2013-04-08 09:40:00,69.6,59.4,30.11,East,89,3.0,10.0,70,0.00,,,0.00,meteohub,2013-04-08 14:40:00,
2013-04-08 09:45:00,70.2,59.2,30.11,SE,130,3.0,10.0,68,0.00,,,0.00,meteohub,2013-04-08 14:45:00,
2013-04-08 09:50:00,70.5,58.6,30.12,East,100,5.0,7.0,66,0.00,,,0.00,meteohub,2013-04-08 14:50:00,
2013-04-08 09:56:00,71.1,58.6,30.12,East,96,5.0,10.0,65,0.00,,,0.00,meteohub,2013-04-08 14:56:00,
2013-04-08 10:01:00,71.8,59.0,30.12,SE,138,5.0,10.0,64,0.00,,,0.00,meteohub,2013-04-08 15:01:00,
2013-04-08 10:06:00,72.0,59.2,30.12,ENE,66,1.0,10.0,64,0.00,,,0.00,meteohub,2013-04-08 15:06:00,
2013-04-08 10:11:00,72.5,59.2,30.12,East,92,6.0,9.0,63,0.00,,,0.00,meteohub,2013-04-08 15:11:00,
2013-04-08 10:17:00,73.0,58.8,30.12,ESE,105,3.0,8.0,61,0.00,,,0.00,meteohub,2013-04-08 15:17:00,
2013-04-08 10:22:00,73.0,58.3,30.12,SSW,196,5.0,10.0,60,0.00,,,0.00,meteohub,2013-04-08 15:22:00,
2013-04-08 10:27:00,73.2,58.1,30.13,ESE,121,5.0,11.0,59,0.00,,,0.00,meteohub,2013-04-08 15:27:00,
2013-04-08 10:32:00,73.2,58.5,30.13,East,93,10.0,11.0,60,0.00,,,0.00,meteohub,2013-04-08 15:32:00,
2013-04-08 10:37:00,73.8,59.0,30.13,ESE,102,2.0,11.0,60,0.00,,,0.00,meteohub,2013-04-08 15:37:00,
2013-04-08 10:43:00,74.1,58.8,30.13,SE,128,0.0,10.0,59,0.00,,,0.00,meteohub,2013-04-08 15:43:00,
2013-04-08 10:48:00,74.8,57.6,30.13,SSE,166,5.0,10.0,55,0.00,,,0.00,meteohub,2013-04-08 15:48:00,
2013-04-08 10:53:00,75.0,56.7,30.13,SSE,147,4.0,9.0,53,0.00,,,0.00,meteohub,2013-04-08 15:53:00,
2013-04-08 10:59:00,75.2,57.9,30.13,SSW,206,2.0,10.0,55,0.00,,,0.00,meteohub,2013-04-08 15:59:00,
2013-04-08 11:04:00,75.2,57.4,30.13,SE,126,4.0,10.0,54,0.00,,,0.00,meteohub,2013-04-08 16:04:00,
2013-04-08 11:09:00,75.4,58.6,30.13,SSW,197,5.0,10.0,56,0.00,,,0.00,meteohub,2013-04-08 16:09:00,
2013-04-08 11:14:00,75.4,57.6,30.13,ESE,112,1.0,10.0,54,0.00,,,0.00,meteohub,2013-04-08 16:14:00,
2013-04-08 11:20:00,75.9,59.2,30.13,North,349,0.0,10.0,56,0.00,,,0.00,meteohub,2013-04-08 16:20:00,
2013-04-08 11:25:00,76.8,57.9,30.13,West,273,1.0,8.0,52,0.00,,,0.00,meteohub,2013-04-08 16:25:00,
2013-04-08 11:30:00,76.8,59.0,30.13,SE,137,5.0,8.0,54,0.00,,,0.00,meteohub,2013-04-08 16:30:00,
2013-04-08 11:35:00,76.5,57.6,30.12,SE,138,4.0,10.0,52,0.00,,,0.00,meteohub,2013-04-08 16:35:00,
2013-04-08 11:40:00,76.6,58.8,30.12,WSW,242,1.0,10.0,54,0.00,,,0.00,meteohub,2013-04-08 16:40:00,
2013-04-08 11:45:00,76.8,57.9,30.12,SSW,204,3.0,14.0,52,0.00,,,0.00,meteohub,2013-04-08 16:45:00,
2013-04-08 11:50:00,77.2,58.3,30.12,South,190,4.0,14.0,52,0.00,,,0.00,meteohub,2013-04-08 16:50:00,
2013-04-08 11:55:00,77.0,58.1,30.12,SE,133,1.0,8.0,52,0.00,,,0.00,meteohub,2013-04-08 16:55:00,
2013-04-08 12:01:00,76.8,59.0,30.12,South,179,1.0,10.0,54,0.00,,,0.00,meteohub,2013-04-08 17:01:00,
2013-04-08 12:06:00,77.2,59.2,30.12,South,171,3.0,10.0,54,0.00,,,0.00,meteohub,2013-04-08 17:06:00,
2013-04-08 12:11:00,77.5,57.9,30.12,ESE,105,3.0,8.0,51,0.00,,,0.00,meteohub,2013-04-08 17:11:00,
2013-04-08 12:16:00,76.8,59.0,30.12,ESE,105,5.0,8.0,54,0.00,,,0.00,meteohub,2013-04-08 17:16:00,
2013-04-08 12:21:00,76.8,57.9,30.12,SSW,201,3.0,10.0,52,0.00,,,0.00,meteohub,2013-04-08 17:21:00,
2013-04-08 12:27:00,76.6,58.3,30.11,SSE,158,2.0,10.0,53,0.00,,,0.00,meteohub,2013-04-08 17:27:00,
2013-04-08 12:32:00,76.6,58.3,30.11,SSE,154,6.0,10.0,53,0.00,,,0.00,meteohub,2013-04-08 17:32:00,
2013-04-08 12:37:00,77.4,58.3,30.11,SSW,202,3.0,10.0,52,0.00,,,0.00,meteohub,2013-04-08 17:37:00,
2013-04-08 12:42:00,77.4,58.3,30.11,SE,125,1.0,13.0,52,0.00,,,0.00,meteohub,2013-04-08 17:42:00,
2013-04-08 12:47:00,77.7,58.6,30.11,East,93,1.0,13.0,52,0.00,,,0.00,meteohub,2013-04-08 17:47:00,
2013-04-08 12:52:00,78.1,59.0,30.11,SE,146,6.0,9.0,52,0.00,,,0.00,meteohub,2013-04-08 17:52:00,
2013-04-08 12:57:00,78.1,58.5,30.10,East,95,3.0,8.0,51,0.00,,,0.00,meteohub,2013-04-08 17:57:00,
2013-04-08 13:02:00,78.4,58.8,30.10,SE,140,2.0,13.0,51,0.00,,,0.00,meteohub,2013-04-08 18:02:00,
2013-04-08 13:08:00,78.4,58.3,30.10,SW,224,2.0,13.0,50,0.00,,,0.00,meteohub,2013-04-08 18:08:00,
2013-04-08 13:13:00,79.3,59.7,30.09,South,191,4.0,13.0,51,0.00,,,0.00,meteohub,2013-04-08 18:13:00,
2013-04-08 13:18:00,80.1,59.2,30.09,WSW,239,6.0,8.0,49,0.00,,,0.00,meteohub,2013-04-08 18:18:00,
2013-04-08 13:24:00,80.1,60.3,30.09,East,91,5.0,11.0,51,0.00,,,0.00,meteohub,2013-04-08 18:24:00,
2013-04-08 13:29:00,79.9,59.0,30.09,SW,231,4.0,11.0,49,0.00,,,0.00,meteohub,2013-04-08 18:29:00,
2013-04-08 13:34:00,80.1,58.6,30.08,ESE,121,3.0,11.0,48,0.00,,,0.00,meteohub,2013-04-08 18:34:00,
2013-04-08 13:40:00,79.9,59.5,30.09,South,178,12.0,12.0,50,0.00,,,0.00,meteohub,2013-04-08 18:40:00,
2013-04-08 13:45:00,79.5,59.2,30.09,South,191,2.0,12.0,50,0.00,,,0.00,meteohub,2013-04-08 18:45:00,
2013-04-08 13:50:00,79.3,58.5,30.08,SSW,212,3.0,12.0,49,0.00,,,0.00,meteohub,2013-04-08 18:50:00,
2013-04-08 13:56:00,79.5,58.6,30.08,SSW,205,7.0,12.0,49,0.00,,,0.00,meteohub,2013-04-08 18:56:00,
2013-04-08 14:02:00,79.2,59.0,30.08,SW,224,3.0,14.0,50,0.00,,,0.00,meteohub,2013-04-08 19:02:00,
2013-04-08 14:07:00,78.6,59.0,30.07,SE,135,4.0,14.0,51,0.00,,,0.00,meteohub,2013-04-08 19:07:00,
2013-04-08 14:12:00,79.3,59.7,30.07,ESE,111,5.0,14.0,51,0.00,,,0.00,meteohub,2013-04-08 19:12:00,
2013-04-08 14:17:00,80.1,59.7,30.07,SE,138,2.0,11.0,50,0.00,,,0.00,meteohub,2013-04-08 19:17:00,
2013-04-08 14:22:00,80.2,59.4,30.07,SE,138,6.0,9.0,49,0.00,,,0.00,meteohub,2013-04-08 19:22:00,
2013-04-08 14:27:00,80.1,59.7,30.07,SSE,155,2.0,12.0,50,0.00,,,0.00,meteohub,2013-04-08 19:27:00,
2013-04-08 14:32:00,79.9,59.0,30.07,East,91,2.0,12.0,49,0.00,,,0.00,meteohub,2013-04-08 19:32:00,
2013-04-08 14:38:00,79.3,58.5,30.06,SSW,208,2.0,12.0,49,0.00,,,0.00,meteohub,2013-04-08 19:38:00,
2013-04-08 14:43:00,79.5,58.6,30.06,SW,224,7.0,10.0,49,0.00,,,0.00,meteohub,2013-04-08 19:43:00,
2013-04-08 14:48:00,80.2,59.4,30.06,South,189,2.0,10.0,49,0.00,,,0.00,meteohub,2013-04-08 19:48:00,
2013-04-08 14:53:00,80.2,58.8,30.06,WSW,252,3.0,8.0,48,0.00,,,0.00,meteohub,2013-04-08 19:53:00,
2013-04-08 14:59:00,79.3,59.0,30.06,SE,145,4.0,13.0,50,0.00,,,0.00,meteohub,2013-04-08 19:59:00,
2013-04-08 15:04:00,79.3,58.5,30.06,SSE,168,6.0,13.0,49,0.00,,,0.00,meteohub,2013-04-08 20:04:00,
2013-04-08 15:09:00,79.2,59.0,30.05,SE,127,7.0,13.0,50,0.00,,,0.00,meteohub,2013-04-08 20:09:00,
2013-04-08 15:14:00,79.2,58.3,30.05,ESE,112,5.0,10.0,49,0.00,,,0.00,meteohub,2013-04-08 20:14:00,
2013-04-08 15:19:00,79.3,59.0,30.06,WSW,241,4.0,10.0,50,0.00,,,0.00,meteohub,2013-04-08 20:19:00,
2013-04-08 15:24:00,80.4,58.3,30.05,SSE,158,2.0,10.0,47,0.00,,,0.00,meteohub,2013-04-08 20:24:00,
2013-04-08 15:29:00,80.8,59.2,30.05,WNW,283,7.0,10.0,48,0.00,,,0.00,meteohub,2013-04-08 20:29:00,
2013-04-08 15:34:00,80.8,58.6,30.05,WSW,238,7.0,10.0,47,0.00,,,0.00,meteohub,2013-04-08 20:34:00,
2013-04-08 15:39:00,80.8,58.6,30.05,WSW,257,5.0,11.0,47,0.00,,,0.00,meteohub,2013-04-08 20:39:00,
2013-04-08 15:44:00,80.4,59.0,30.05,WSW,246,2.0,16.0,48,0.00,,,0.00,meteohub,2013-04-08 20:44:00,
2013-04-08 15:50:00,81.0,58.8,30.05,SSW,208,4.0,16.0,47,0.00,,,0.00,meteohub,2013-04-08 20:50:00,
2013-04-08 15:55:00,81.1,59.5,30.05,West,261,3.0,13.0,48,0.00,,,0.00,meteohub,2013-04-08 20:55:00,
2013-04-08 16:00:00,81.1,59.0,30.05,WSW,251,5.0,12.0,47,0.00,,,0.00,meteohub,2013-04-08 21:00:00,
2013-04-08 16:05:00,81.0,59.4,30.05,South,179,1.0,12.0,48,0.00,,,0.00,meteohub,2013-04-08 21:05:00,
2013-04-08 16:11:00,81.5,58.1,30.05,WSW,240,3.0,14.0,45,0.00,,,0.00,meteohub,2013-04-08 21:11:00,
2013-04-08 16:16:00,81.3,58.6,30.05,WSW,256,5.0,14.0,46,0.00,,,0.00,meteohub,2013-04-08 21:16:00,
2013-04-08 16:22:00,80.8,58.6,30.05,WSW,251,6.0,14.0,47,0.00,,,0.00,meteohub,2013-04-08 21:22:00,
2013-04-08 16:27:00,80.6,59.2,30.04,ESE,108,7.0,11.0,48,0.00,,,0.00,meteohub,2013-04-08 21:27:00,
2013-04-08 16:32:00,81.1,59.0,30.05,WNW,299,4.0,11.0,47,0.00,,,0.00,meteohub,2013-04-08 21:32:00,
2013-04-08 16:37:00,81.7,58.8,30.04,WSW,246,7.0,10.0,46,0.00,,,0.00,meteohub,2013-04-08 21:37:00,
2013-04-08 16:42:00,81.9,59.0,30.04,SSE,152,2.0,10.0,46,0.00,,,0.00,meteohub,2013-04-08 21:42:00,
2013-04-08 16:47:00,81.7,58.8,30.04,West,261,6.0,9.0,46,0.00,,,0.00,meteohub,2013-04-08 21:47:00,
2013-04-08 16:52:00,81.1,57.7,30.04,SW,235,5.0,10.0,45,0.00,,,0.00,meteohub,2013-04-08 21:52:00,
2013-04-08 16:57:00,81.0,58.3,30.04,SSW,201,6.0,11.0,46,0.00,,,0.00,meteohub,2013-04-08 21:57:00,
2013-04-08 17:03:00,81.0,58.3,30.04,SSW,203,9.0,11.0,46,0.00,,,0.00,meteohub,2013-04-08 22:03:00,
2013-04-08 17:08:00,81.1,59.0,30.04,WSW,247,0.0,11.0,47,0.00,,,0.00,meteohub,2013-04-08 22:08:00,
2013-04-08 17:13:00,81.3,58.6,30.04,SSW,193,0.0,12.0,46,0.00,,,0.00,meteohub,2013-04-08 22:13:00,
2013-04-08 17:19:00,81.9,59.7,30.04,ESE,106,4.0,12.0,47,0.00,,,0.00,meteohub,2013-04-08 22:19:00,
2013-04-08 17:24:00,81.3,59.2,30.04,SSW,199,9.0,13.0,47,0.00,,,0.00,meteohub,2013-04-08 22:24:00,
2013-04-08 17:30:00,81.0,58.3,30.04,SW,233,6.0,13.0,46,0.00,,,0.00,meteohub,2013-04-08 22:30:00,
2013-04-08 17:35:00,81.0,58.8,30.04,SSE,162,2.0,9.0,47,0.00,,,0.00,meteohub,2013-04-08 22:35:00,
2013-04-08 17:40:00,81.0,58.8,30.04,SE,141,3.0,10.0,47,0.00,,,0.00,meteohub,2013-04-08 22:40:00,
2013-04-08 17:45:00,81.0,58.8,30.04,SE,146,1.0,10.0,47,0.00,,,0.00,meteohub,2013-04-08 22:45:00,
2013-04-08 17:50:00,80.8,58.1,30.04,SSE,151,2.0,10.0,46,0.00,,,0.00,meteohub,2013-04-08 22:50:00,
2013-04-08 17:55:00,80.4,58.3,30.05,SE,143,4.0,8.0,47,0.00,,,0.00,meteohub,2013-04-08 22:55:00,
2013-04-08 18:00:00,79.9,57.9,30.05,South,173,5.0,11.0,47,0.00,,,0.00,meteohub,2013-04-08 23:00:00,
2013-04-08 18:05:00,79.5,57.6,30.05,SSE,158,3.0,11.0,47,0.00,,,0.00,meteohub,2013-04-08 23:05:00,
2013-04-08 18:10:00,79.3,57.4,30.05,SSW,197,1.0,12.0,47,0.00,,,0.00,meteohub,2013-04-08 23:10:00,
2013-04-08 18:15:00,79.3,57.9,30.05,SSW,212,5.0,12.0,48,0.00,,,0.00,meteohub,2013-04-08 23:15:00,
2013-04-08 18:20:00,79.0,57.6,30.05,South,184,5.0,6.0,48,0.00,,,0.00,meteohub,2013-04-08 23:20:00,
2013-04-08 18:26:00,78.6,57.9,30.05,South,181,2.0,8.0,49,0.00,,,0.00,meteohub,2013-04-08 23:26:00,
2013-04-08 18:32:00,78.4,57.7,30.05,South,174,1.0,9.0,49,0.00,,,0.00,meteohub,2013-04-08 23:32:00,
2013-04-08 18:37:00,78.3,58.1,30.05,SW,218,1.0,9.0,50,0.00,,,0.00,meteohub,2013-04-08 23:37:00,
2013-04-08 18:42:00,77.7,57.6,30.05,SW,215,1.0,9.0,50,0.00,,,0.00,meteohub,2013-04-08 23:42:00,
2013-04-08 18:47:00,77.5,57.9,30.05,South,189,7.0,9.0,51,0.00,,,0.00,meteohub,2013-04-08 23:47:00,
2013-04-08 18:52:00,77.2,57.7,30.05,SW,215,3.0,9.0,51,0.00,,,0.00,meteohub,2013-04-08 23:52:00,
2013-04-08 18:57:00,76.6,57.7,30.06,WSW,239,2.0,9.0,52,0.00,,,0.00,meteohub,2013-04-08 23:57:00,
2013-04-08 19:02:00,76.3,57.9,30.06,SSE,168,2.0,12.0,53,0.00,,,0.00,meteohub,2013-04-09 00:02:00,
2013-04-08 19:08:00,75.7,57.9,30.06,SSE,166,3.0,12.0,54,0.00,,,0.00,meteohub,2013-04-09 00:08:00,
2013-04-08 19:13:00,75.4,58.1,30.06,SSW,196,0.0,10.0,55,0.00,,,0.00,meteohub,2013-04-09 00:13:00,
2013-04-08 19:18:00,75.0,57.7,30.06,SSW,192,3.0,10.0,55,0.00,,,0.00,meteohub,2013-04-09 00:18:00,
2013-04-08 19:24:00,74.7,57.9,30.06,South,179,0.0,10.0,56,0.00,,,0.00,meteohub,2013-04-09 00:24:00,
2013-04-08 19:29:00,74.1,57.4,30.06,South,170,1.0,6.0,56,0.00,,,0.00,meteohub,2013-04-09 00:29:00,
2013-04-08 19:34:00,73.9,57.7,30.06,South,189,0.0,5.0,57,0.00,,,0.00,meteohub,2013-04-09 00:34:00,
2013-04-08 19:39:00,73.8,58.1,30.06,SW,216,1.0,5.0,58,0.00,,,0.00,meteohub,2013-04-09 00:39:00,
2013-04-08 19:44:00,73.4,57.7,30.07,SSW,196,0.0,5.0,58,0.00,,,0.00,meteohub,2013-04-09 00:44:00,
2013-04-08 19:50:00,73.0,57.9,30.06,South,178,0.0,4.0,59,0.00,,,0.00,meteohub,2013-04-09 00:50:00,
2013-04-08 19:55:00,72.7,57.6,30.07,South,171,2.0,7.0,59,0.00,,,0.00,meteohub,2013-04-09 00:55:00,
2013-04-08 20:00:00,72.3,57.7,30.07,South,169,3.0,7.0,60,0.00,,,0.00,meteohub,2013-04-09 01:00:00,
2013-04-08 20:05:00,72.1,57.6,30.07,South,189,4.0,5.0,60,0.00,,,0.00,meteohub,2013-04-09 01:05:00,
2013-04-08 20:10:00,72.0,57.7,30.07,SSE,148,4.0,5.0,61,0.00,,,0.00,meteohub,2013-04-09 01:10:00,
2013-04-08 20:16:00,71.6,57.9,30.07,SW,228,4.0,5.0,62,0.00,,,0.00,meteohub,2013-04-09 01:16:00,
2013-04-08 20:21:00,71.2,57.9,30.08,SSE,159,2.0,5.0,63,0.00,,,0.00,meteohub,2013-04-09 01:21:00,
2013-04-08 20:26:00,71.2,58.5,30.08,South,172,3.0,5.0,64,0.00,,,0.00,meteohub,2013-04-09 01:26:00,
2013-04-08 20:31:00,71.1,58.3,30.08,SSW,200,0.0,5.0,64,0.00,,,0.00,meteohub,2013-04-09 01:31:00,
2013-04-08 20:36:00,70.9,58.5,30.08,SSW,203,4.0,5.0,65,0.00,,,0.00,meteohub,2013-04-09 01:36:00,
2013-04-08 20:41:00,70.7,58.3,30.09,WSW,249,0.0,5.0,65,0.00,,,0.00,meteohub,2013-04-09 01:41:00,
2013-04-08 20:47:00,70.5,58.6,30.09,SSE,163,1.0,5.0,66,0.00,,,0.00,meteohub,2013-04-09 01:47:00,
2013-04-08 20:52:00,70.3,58.5,30.09,South,170,0.0,5.0,66,0.00,,,0.00,meteohub,2013-04-09 01:52:00,
2013-04-08 20:57:00,70.2,58.6,30.09,South,177,0.0,4.0,67,0.00,,,0.00,meteohub,2013-04-09 01:57:00,
2013-04-08 21:02:00,70.0,59.0,30.09,SSW,204,0.0,4.0,68,0.00,,,0.00,meteohub,2013-04-09 02:02:00,
2013-04-08 21:07:00,69.8,58.8,30.10,SSE,150,1.0,3.0,68,0.00,,,0.00,meteohub,2013-04-09 02:07:00,
2013-04-08 21:13:00,69.6,58.6,30.09,South,181,0.0,2.0,68,0.00,,,0.00,meteohub,2013-04-09 02:13:00,
2013-04-08 21:18:00,69.3,58.6,30.10,SSE,167,0.0,2.0,69,0.00,,,0.00,meteohub,2013-04-09 02:18:00,
2013-04-08 21:23:00,69.1,58.8,30.10,SSE,158,0.0,2.0,70,0.00,,,0.00,meteohub,2013-04-09 02:23:00,
2013-04-08 21:28:00,68.7,58.5,30.10,South,174,0.0,2.0,70,0.00,,,0.00,meteohub,2013-04-09 02:28:00,
2013-04-08 21:35:00,68.5,58.8,30.10,South,174,1.0,2.0,71,0.00,,,0.00,meteohub,2013-04-09 02:35:00,
2013-04-08 21:40:00,68.4,58.6,30.10,SE,141,1.0,3.0,71,0.00,,,0.00,meteohub,2013-04-09 02:40:00,
2013-04-08 21:45:00,68.2,58.8,30.10,SE,141,1.0,3.0,72,0.00,,,0.00,meteohub,2013-04-09 02:45:00,
2013-04-08 21:51:00,67.8,58.8,30.10,SE,141,0.0,2.0,73,0.00,,,0.00,meteohub,2013-04-09 02:51:00,
2013-04-08 21:56:00,67.6,58.6,30.10,SE,141,0.0,2.0,73,0.00,,,0.00,meteohub,2013-04-09 02:56:00,
2013-04-08 22:01:00,67.5,58.8,30.10,SE,132,1.0,2.0,74,0.00,,,0.00,meteohub,2013-04-09 03:01:00,
2013-04-08 22:06:00,67.3,58.6,30.10,SE,132,1.0,2.0,74,0.00,,,0.00,meteohub,2013-04-09 03:06:00,
2013-04-08 22:11:00,66.9,58.8,30.10,SE,132,0.0,2.0,75,0.00,,,0.00,meteohub,2013-04-09 03:11:00,
2013-04-08 22:16:00,66.7,59.0,30.10,SE,132,0.0,2.0,76,0.00,,,0.00,meteohub,2013-04-09 03:16:00,
2013-04-08 22:21:00,66.7,59.0,30.10,SE,132,0.0,2.0,76,0.00,,,0.00,meteohub,2013-04-09 03:21:00,
2013-04-08 22:27:00,66.6,59.2,30.10,SE,132,0.0,2.0,77,0.00,,,0.00,meteohub,2013-04-09 03:27:00,
2013-04-08 22:32:00,66.4,59.0,30.10,SE,132,0.0,1.0,77,0.00,,,0.00,meteohub,2013-04-09 03:32:00,
2013-04-08 22:37:00,66.0,59.0,30.10,SE,132,0.0,1.0,78,0.00,,,0.00,meteohub,2013-04-09 03:37:00,
2013-04-08 22:42:00,65.8,58.8,30.10,SE,132,0.0,1.0,78,0.00,,,0.00,meteohub,2013-04-09 03:42:00,
2013-04-08 22:47:00,65.8,59.2,30.10,SE,132,0.0,1.0,79,0.00,,,0.00,meteohub,2013-04-09 03:47:00,
2013-04-08 22:53:00,65.7,59.0,30.10,SE,132,1.0,1.0,79,0.00,,,0.00,meteohub,2013-04-09 03:53:00,
2013-04-08 22:58:00,65.5,59.2,30.10,SE,131,0.0,1.0,80,0.00,,,0.00,meteohub,2013-04-09 03:58:00,
2013-04-08 23:00:00,65.5,59.2,30.10,SE,132,1.0,1.0,80,0.00,,,0.00,meteohub,2013-04-09 04:00:00,
2013-04-08 23:02:00,65.5,59.2,30.10,SSE,162,1.0,2.0,80,0.00,,,0.00,meteohub,2013-04-09 04:02:00,
2013-04-08 23:03:00,65.5,59.2,30.10,ESE,117,1.0,2.0,80,0.00,,,0.00,meteohub,2013-04-09 04:03:00,
2013-04-08 23:08:00,65.3,59.0,30.10,SE,125,3.0,3.0,80,0.00,,,0.00,meteohub,2013-04-09 04:08:00,
2013-04-08 23:13:00,65.3,59.4,30.10,ESE,114,0.0,3.0,81,0.00,,,0.00,meteohub,2013-04-09 04:13:00,
2013-04-08 23:18:00,65.1,59.2,30.10,SE,127,2.0,3.0,81,0.00,,,0.00,meteohub,2013-04-09 04:18:00,
2013-04-08 23:24:00,65.1,59.2,30.09,SE,129,2.0,5.0,81,0.00,,,0.00,meteohub,2013-04-09 04:24:00,
2013-04-08 23:29:00,64.9,59.4,30.09,SE,133,2.0,5.0,82,0.00,,,0.00,meteohub,2013-04-09 04:29:00,
2013-04-08 23:34:00,64.9,59.4,30.09,ESE,117,2.0,5.0,82,0.00,,,0.00,meteohub,2013-04-09 04:34:00,
2013-04-08 23:40:00,64.8,59.2,30.09,SE,133,0.0,5.0,82,0.00,,,0.00,meteohub,2013-04-09 04:40:00,
2013-04-08 23:45:00,64.8,59.2,30.09,SE,127,1.0,5.0,82,0.00,,,0.00,meteohub,2013-04-09 04:45:00,
2013-04-08 23:50:00,64.8,59.5,30.09,SE,131,3.0,5.0,83,0.00,,,0.00,meteohub,2013-04-09 04:50:00,
2013-04-08 23:55:00,64.8,59.5,30.09,SSE,149,2.0,6.0,83,0.00,,,0.00,meteohub,2013-04-09 04:55:00,